Le nostre stazioni meteo in Italia

Pubblicità
Il mio iltempo24.it
Trieste, Italia (16110): Temperatura & dewpoint: 08.11.2019 23:00:00 - 14.11.2019 23:00:00 (CET)Trieste, Italia (16110): velocità del vento: 08.11.2019 23:00:00 - 14.11.2019 23:00:00 (CET)Trieste, Italia (16110): direzione del vento: 08.11.2019 23:00:00 - 14.11.2019 23:00:00 (CET)Trieste, Italia (16110): reduced air pressure: 08.11.2019 23:00:00 - 14.11.2019 23:00:00 (CET)Trieste, Italia (16110): visibility: 08.11.2019 23:00:00 - 14.11.2019 23:00:00 (CET)Trieste, Italia (16110): ore di luce: 08.11.2019 23:00:00 - 14.11.2019 23:00:00 (CET)
Data & Tempo tt [°C] td [°C] ff [km/h] ff [kn] dd ppp [hPa] vv [km] sd [min]
14.11.2019 23:00:00 - - - - - - - -
14.11.2019 22:00:00 - - - - - - - -
14.11.2019 21:00:00 - - - - - - - -
14.11.2019 20:00:00 - - - - - - - -
14.11.2019 19:00:00 11,0 6,2 13 7 NE 1008,5 20 -
14.11.2019 18:00:00 11,4 6,3 13 7 NE 1008,4 20 -
14.11.2019 17:00:00 12,0 6,5 8 4 ENE 1008,2 20 -
14.11.2019 16:00:00 12,6 6,4 9 5 NE 1007,8 20 30
14.11.2019 15:00:00 13,0 6,4 8 4 NE 1008,3 20 24
14.11.2019 14:00:00 13,2 6,1 4 2 NE 1008,3 20 12
14.11.2019 13:00:00 13,2 6,1 8 4 NE 1008,6 20 6
14.11.2019 12:00:00 12,4 6,0 8 4 NE 1008,9 20 0
14.11.2019 11:00:00 12,0 5,6 4 2 NE 1009,1 20 30
14.11.2019 10:00:00 12,0 6,3 11 6 NE 1008,8 20 60
14.11.2019 09:00:00 10,0 6,0 8 4 NE 1008,7 20 42
14.11.2019 08:00:00 9,4 5,8 11 6 NE 1008,6 20 -
14.11.2019 07:00:00 9,4 5,8 8 4 NE 1008,0 20 -
14.11.2019 06:00:00 - - - - - - - -
14.11.2019 05:00:00 - - - - - - - -
14.11.2019 04:00:00 - - - - - - - -
14.11.2019 03:00:00 - - - - - - - -
14.11.2019 02:00:00 - - - - - - - -
14.11.2019 01:00:00 - - - - - - - -
14.11.2019 00:00:00 - - - - - - - -
13.11.2019 23:00:00 - - - - - - - -
13.11.2019 22:00:00 - - - - - - - -
13.11.2019 21:00:00 - - - - - - - -
13.11.2019 20:00:00 - - - - - - - -
13.11.2019 19:00:00 11,6 9,4 8 4 E 1002,8 20 -
13.11.2019 18:00:00 12,0 9,7 4 2 E 1002,0 20 -
13.11.2019 17:00:00 12,2 10,3 8 4 SE 1000,7 18 0
13.11.2019 16:00:00 13,2 10,7 8 4 N 999,2 10 0
13.11.2019 15:00:00 13,2 11,8 2 1 OSO 997,6 10 0
13.11.2019 14:00:00 12,8 11,9 8 4 SO 996,4 10 0
13.11.2019 13:00:00 12,4 11,6 4 2 ENE 995,5 6 0
13.11.2019 12:00:00 13,0 10,7 8 4 ENE 995,0 10 0
13.11.2019 11:00:00 12,2 10,3 15 8 NE 994,3 10 0
13.11.2019 10:00:00 12,4 10,0 16 9 ENE 994,2 10 0
13.11.2019 09:00:00 12,0 9,5 18 10 NE 994,2 10 0
13.11.2019 08:00:00 11,2 10,3 15 8 NE 994,5 10 0
13.11.2019 07:00:00 11,4 10,5 8 4 NE 994,5 7 -
13.11.2019 06:00:00 - - - - - - - -
13.11.2019 05:00:00 - - - - - - - -
13.11.2019 04:00:00 - - - - - - - -
13.11.2019 03:00:00 - - - - - - - -
13.11.2019 02:00:00 - - - - - - - -
13.11.2019 01:00:00 - - - - - - - -
13.11.2019 00:00:00 - - - - - - - -
12.11.2019 23:00:00 - - - - - - - -
12.11.2019 22:00:00 - - - - - - - -
12.11.2019 21:00:00 - - - - - - - -
12.11.2019 20:00:00 - - - - - - - -
12.11.2019 19:00:00 11,4 9,0 31 17 NNE 995,8 7 -
12.11.2019 18:00:00 11,0 8,7 29 16 NNE 995,5 7 0
12.11.2019 17:00:00 10,8 9,2 37 20 NNE 996,8 6 0
12.11.2019 16:00:00 11,0 9,4 28 15 NE 997,2 6 0
12.11.2019 15:00:00 11,0 8,6 37 20 NNE 998,1 7 0
12.11.2019 14:00:00 11,0 8,6 28 15 NNE 998,9 10 0
12.11.2019 13:00:00 11,2 8,4 26 14 NNE 999,8 10 0
12.11.2019 12:00:00 11,8 7,9 29 16 NE 1001,5 20 0
12.11.2019 11:00:00 11,6 7,1 28 15 NNE 1001,5 20 0
12.11.2019 10:00:00 11,2 7,7 28 15 NNE 1002,6 16 0
12.11.2019 09:00:00 10,8 8,7 24 13 NE 1003,7 14 0
12.11.2019 08:00:00 10,6 9,2 24 13 NE 1004,3 12 0
12.11.2019 07:00:00 11,0 9,6 22 12 NE 1004,7 10 -
12.11.2019 06:00:00 - - - - - - - -
12.11.2019 05:00:00 - - - - - - - -
12.11.2019 04:00:00 - - - - - - - -
12.11.2019 03:00:00 - - - - - - - -
12.11.2019 02:00:00 - - - - - - - -
12.11.2019 01:00:00 - - - - - - - -
12.11.2019 00:00:00 - - - - - - - -
11.11.2019 23:00:00 - - - - - - - -
11.11.2019 22:00:00 - - - - - - - -
11.11.2019 21:00:00 - - - - - - - -
11.11.2019 20:00:00 - - - - - - - -
11.11.2019 19:00:00 13,6 10,6 2 1 ENE 1011,0 10 -
11.11.2019 18:00:00 12,8 10,4 2 1 ENE 1011,3 10 -
11.11.2019 17:00:00 12,2 10,8 4 2 ENE 1011,6 8 0
11.11.2019 16:00:00 11,2 10,0 8 4 ENE 1011,7 7 0
11.11.2019 15:00:00 11,2 9,6 9 5 NE 1012,2 8 0
11.11.2019 14:00:00 11,0 9,4 13 7 NE 1012,8 10 0
11.11.2019 13:00:00 10,8 9,2 4 2 ENE 1013,6 10 0
11.11.2019 12:00:00 11,0 8,6 4 2 ENE 1014,1 12 0
11.11.2019 11:00:00 12,0 6,7 11 6 NE 1014,1 20 0
11.11.2019 10:00:00 12,0 6,3 8 4 NE 1014,4 20 0
11.11.2019 09:00:00 11,0 5,7 9 5 NE 1014,7 20 0
11.11.2019 08:00:00 10,2 4,8 11 6 NE 1014,9 20 -
11.11.2019 07:00:00 9,4 4,2 9 5 NE 1014,9 20 -
11.11.2019 06:00:00 - - - - - - - -
11.11.2019 05:00:00 - - - - - - - -
11.11.2019 04:00:00 - - - - - - - -
11.11.2019 03:00:00 - - - - - - - -
11.11.2019 02:00:00 - - - - - - - -
11.11.2019 01:00:00 - - - - - - - -
11.11.2019 00:00:00 - - - - - - - -
10.11.2019 23:00:00 - - - - - - - -
10.11.2019 22:00:00 - - - - - - - -
10.11.2019 21:00:00 - - - - - - - -
10.11.2019 20:00:00 - - - - - - - -
10.11.2019 19:00:00 12,0 5,4 13 7 ENE 1012,2 20 -
10.11.2019 18:00:00 11,6 5,5 18 10 NE 1010,9 20 -
10.11.2019 17:00:00 12,2 5,6 9 5 NNE 1010,1 20 -
10.11.2019 16:00:00 13,8 5,9 2 1 ENE 1009,4 20 24
10.11.2019 15:00:00 15,4 7,2 5 3 SSO 1008,9 20 60
10.11.2019 14:00:00 17,0 6,5 5 3 NE 1008,7 20 60
10.11.2019 13:00:00 16,2 5,8 5 3 NE 1008,4 20 60
10.11.2019 12:00:00 15,4 5,6 8 4 NE 1008,3 20 60
10.11.2019 11:00:00 14,6 5,7 13 7 NE 1008,0 20 60
10.11.2019 10:00:00 13,0 4,9 0 0 N 1007,3 20 60
10.11.2019 09:00:00 11,2 5,3 21 11 NE 1007,3 20 18
10.11.2019 08:00:00 10,6 6,2 24 13 NE 1006,8 20 0
10.11.2019 07:00:00 10,6 6,0 24 13 NE 1006,5 20 -
10.11.2019 06:00:00 - - - - - - - -
10.11.2019 05:00:00 - - - - - - - -
10.11.2019 04:00:00 - - - - - - - -
10.11.2019 03:00:00 - - - - - - - -
10.11.2019 02:00:00 - - - - - - - -
10.11.2019 01:00:00 - - - - - - - -
10.11.2019 00:00:00 - - - - - - - -
09.11.2019 23:00:00 - - - - - - - -
09.11.2019 22:00:00 - - - - - - - -
09.11.2019 21:00:00 - - - - - - - -
09.11.2019 20:00:00 - - - - - - - -
09.11.2019 19:00:00 10,6 7,8 8 4 NE 1009,9 20 -
09.11.2019 18:00:00 10,4 8,7 5 3 NNE 1009,6 20 -
09.11.2019 17:00:00 11,0 9,1 2 1 NE 1009,5 10 12
09.11.2019 16:00:00 13,8 8,8 0 0 N 1009,0 20 60
09.11.2019 15:00:00 13,0 9,2 0 0 N 1009,0 20 60
09.11.2019 14:00:00 13,2 9,2 0 0 N 1009,0 20 18
09.11.2019 13:00:00 14,0 9,7 4 2 ENE 1009,2 20 42
09.11.2019 12:00:00 15,0 8,9 4 2 ENE 1009,0 20 6
09.11.2019 11:00:00 14,0 10,0 2 1 SSE 1009,0 20 42
09.11.2019 10:00:00 13,2 10,9 0 0 N 1008,5 20 18
09.11.2019 09:00:00 11,4 10,3 2 1 ENE 1008,2 20 0
09.11.2019 08:00:00 11,6 10,5 13 7 NE 1007,4 15 0
09.11.2019 07:00:00 12,6 10,1 11 6 NE 1006,3 15 -
09.11.2019 06:00:00 - - - - - - - -
09.11.2019 05:00:00 - - - - - - - -
09.11.2019 04:00:00 - - - - - - - -
09.11.2019 03:00:00 - - - - - - - -
09.11.2019 02:00:00 - - - - - - - -
09.11.2019 01:00:00 - - - - - - - -
09.11.2019 00:00:00 - - - - - - - -
08.11.2019 23:00:00 - - - - - - - -

tt = Temperatura
td = dewpoint
ff = velocità del vento
dd = direzione del vento
ppp = reduced air pressure
vv = visibility
sd = ore di luce

Stazioni seguenti

WeatherPro
AMSI
MeteoEarth